Weather in Anshan

China     30°26′35″N   106°31′00″E
temp.,
°C
wind,
m/s
gust,
m/s
humid.,
%
clouds,
%
prec.,
mm/h
press.,
hPa
HPBL,
m
17 may, mon
mon1723:00+19ene227487 0.0 101223
02:00+18ene2282100 0.0 101228
05:00+18n2282100 0.0 101328
08:00+18ne1386100 0.1 1015137
11:00+19e2580100 0.0 1015247
14:00+23ene3253100 0.0 10131075
17:00+23ne2250100 0.0 10101201
20:00+21ene2263100 0.0 101124
18 may, tue
tue1823:00+19ene2267100 0.0 101226
02:00+19ssw2272100 0.1 101236
05:00+17ssw2389100 0.4 1012134
08:00+18wsw118495 0.4 1014164
11:00+21sse2170100 0.0 1013549
14:00+22sse226790 0.1 1010845
17:00+23ese3361100 0.1 1008910
20:00+20ene2373100 0.1 100840
19 may, wed
wed1923:00+20ne2275100 0.0 100927
02:00+19ne117797 0.0 100818
05:00+19ne1182100 0.1 100718
08:00+19ene2282100 0.1 100865
11:00+23sw116284 0.0 1009728
14:00+26s2253100 0.0 10071479
17:00+24ssw446782 0.4 1007669
20:00+22ssw237595 0.5 100797
20 may, thu
thu2023:00+20sw378388 0.0 1009256
02:00+19s2389100 0.0 100875
05:00+18ssw12905 0.0 100821
08:00+20sse227996 0.0 1009236
11:00+24sw2265100 0.0 1008936
14:00+25ssw2160100 0.0 10061070
17:00+25s1264100 0.0 1005577
20:00+23ssw1171100 0.0 100511
21 may, fri
fri2123:00+22s017478 0.0 100711
02:00+21ne1178100 0.0 100511
05:00+20ese1181100 0.0 100411
08:00+22e1279100 0.0 1005115
11:00+27sse115898 0.0 1004949
14:00+28ssw235333 0.0 10011551
17:00+28ssw115999 0.0 1000707
20:00+26wnw1166100 0.0 100014